Regional Weather Roundup
Issued by NWS Charleston, SC

Current Version | Previous Version | Graphics & Text | Print | Product List | Glossary On
Versions: 1 2 3 4 5 6 7 8 9 10 11 12 13 14 15 16 17 18 19 20 21 22 23 24 25 26 27 28 29 30 31 32 33 34 35 36 37 38 39 40 41 42 43 44 45 46 47 48 49 50
000 ASUS42 KCHS 222325 RWRCHS REGIONAL WEATHER ROUNDUP NATIONAL WEATHER SERVICE CHARLESTON SC 700 PM EDT MON SEP 22 2014 NOTE: "FAIR" INDICATES FEW OR NO CLOUDS BELOW 12,000 FEET WITH NO SIGNIFICANT WEATHER AND/OR OBSTRUCTIONS TO VISIBILITY. NOT ALL STATIONS ARE QUALITY CONTROLLED BY THE NATIONAL WEATHER SERVICE. USE DATA WITH CAUTION...ESPECIALLY DEWPOINT OBSERVATIONS. SCZ027-030-031-034>040-042>050-230000- ...SOUTH CAROLINA... CITY SKY/WX TMP DP RH WIND PRES REMARKS N CHARLESTON RAIN 70 66 87 NE3 30.06R FOG WATERFRONT PRK NOT AVBL FORT JOHNSON NOT AVBL MOUNT PLEASANT MOCLDY 70 68 94 NW7 30.06S FOG JOHNS ISLAND LGT RAIN 70 70 100 NW8 30.07R PINOPOLIS N/A 70 66 88 E9 29.97R MONCKS CORNER LGT RAIN 68 68 100 CALM 30.05R SUMMERVILLE LGT RAIN 68 68 100 E3 30.05R BEAUFORT MCAS RAIN 70 67 90 E8 30.04R FOG BEAUFORT ARPT RAIN 68 68 100 N10 30.03F HILTON HEAD IS NOT AVBL GEORGETOWN NOT AVBL WALTERBORO LGT RAIN 68 N/A N/A E7 30.05S ORANGEBURG LGT RAIN 65 60 84 NE6 30.05R BARNWELL LGT RAIN 64 64 100 N6 30.06R AIKEN FAIR 68 64 88 NE6 30.08F MANNING MOCLDY 70 N/A N/A NE3 30.05S KINGSTREE NOT AVBL COLUMBIA CLOUDY 70 63 78 CALM 30.06R SUMTER RAIN 66 63 92 NE7 30.05S FLORENCE LGT RAIN 69 64 84 CALM 30.08R MYRTLE BEACH LGT RAIN 70 64 83 SW7 30.08R N MYRTLE BEACH RAIN 70 66 87 S5 30.06R $$ GAZ063-065-086>088-099>101-113>116-118-119-134-136>141-150-230000- ...GEORGIA... CITY SKY/WX TMP DP RH WIND PRES REMARKS SAVANNAH ARPT CLOUDY 72 65 78 NE8 30.03R HUNTER AAF MOCLDY 72 65 79 NE9 30.01R FORT STEWART MOCLDY 74 65 74 NE10 30.01R STATESBORO NOT AVBL SYLVANIA LGT RAIN 73 72 96 CALM 30.05R CLAXTON CLOUDY 73 70 88 NE6 30.02S THOMSON CLOUDY 69 66 92 NE5 30.10R AUGUSTA-BUSH LGT RAIN 67 65 93 SW3 30.04R AUGUSTA-DANIEL CLOUDY 68 62 81 W8 30.06R SWAINSBORO RAIN 70 70 100 CALM 30.06R VIDALIA CLOUDY 72 70 94 NE3 30.03R ALMA MOCLDY 77 62 59 N9 30.00R WAYCROSS MOCLDY 80 70 71 NE8 29.99R JESUP FAIR 79 68 69 NE8 30.01R BRUNSWICK MOCLDY 82 64 54 SE7 29.99S SAINT SIMONS CLOUDY 81 65 58 SE9 29.98R $$ SCZ027-028-034-036>038-045-046-048>050-GAZ119-141-230000- ...LAKE AND SUPPLEMENTAL COASTAL OBSERVATIONS... STATION/POSITION TIME TEMP WIND PRES WAVE SWELL AIR SEA DIR/SP/G HT/PER HT/PER/DIR (UTC) (F) (DEG/KT/KT) (MB) (FT/S) (FT/S/D) UPR LAKE MARION NOT AVBL WINYAH BAY 2200 73 340/ 5 1016.0S LAKE MURRAY 2200 70 60/ 2/ 4 1016.6F ACE BASIN NERRS 2200 69 360/ 4 1017.0S FORT PULASKI 2300 72 10/ 9/ 12 1017.0R SAPELO ISLAND 2200 84 140/ 7 1015.0F $$ ANZ835-935-AMZ111-154-330-350-352-354-374-450-454-472-230000- ...C-MAN AND BUOY OBSERVATIONS... STATION/POSITION TIME TEMP WIND PRES WAVE SWELL AIR SEA DIR/SP/G HT/PER HT/PER/DIR (UTC) (F) (DEG/KT/KT) (MB) (FT/S) (FT/S/D) FOLLY BEACH CMAN 2300 72 330/ 7/ 11 1018.0R BUOY 41004 2300 81 82 210/ 8/ 10 1015.6R 3/ 8 3/ 8 BUOY 41008 2300 82 83 150/ 10/ 12 1015.3R 2/ 8 2/ 90/ 8 5E ST. MARYS GA 2200 84 N/A 2/ 9 FRYING PAN BUOY NOT AVBL BUOY 41025 2300 74 20/ 14/ 17 1016.7R 4/ 8 2/150/ 8 CAPE LOOKOUT NC 2300 75 20/ 8/ 10 1016.9R BUOY 41002 2240 80 81 200/ 8/ 10 1017.1S 3/ 7 3/120/ 7 BUOY 41010 2300 80 84 90/ 8/ 10 1015.4F 3/ 8 3/ 50/ 8 BUOY 41012 NOT AVBL ST AUGUSTINE FL 2300 78 240/ 5/ 6 1016.4R CAPERS NEARSHORE 2200 80 270/ 10/ 14 N/A FRIPP NEARSHORE NOT AVBL $$

USA.gov is the U.S. government's official web portal to all federal, state and local government web resources and services.